Location: Crab Orchard
(37.7292°N, 88.8042°W)
Time: 08:28:47
(UTC+00:00)

USA 267 - Pass Details

Date: 08 December 2019
Orbit: 1100 x 1107 km, 123.0° (Epoch: 17 January)

Event Time Altitude Azimuth Distance (km) Brightness Sun altitude
Rises 22:53:59 0° 119° (ESE) 3,905 5.8 -4.0°
Reaches altitude 10° 22:56:29 10° 116° (ESE) 2,950 5.2 -4.4°
Maximum altitude 23:02:51 59° 39° (NE) 1,252 3.4 -5.5°
Drops below altitude 10° 23:09:14 10° 322° (NW) 2,961 5.7 -6.7°
Sets 23:11:45 0° 318° (NW) 3,922 6.4 -7.1°
